• Join FlightAware (Why Join?)
  • Login
  • US Flag 
Rudolph Flight #1: Scheduled 
09:03PM EST


 

Airport Tracker/Info


-or-


 

Live Flight TrackerFlight Track Log ✈ DAL6115 ✈ 07-Apr-2013 ✈ KDTW - KTVC

Flight Track Log - Related Links

Times and Time Zones

All times are in EDT time to prevent confusion due to time zone crossing. See the DAL6115 flight status page for this flight to view local times or setup timezone preferences in your user account.

Time Position Orientation Groundspeed Altitude Reporting Facility
EDT Latitude Longitude Course Direction KTS MPH feet Rate Location/Type
12:27PM 42.2036 -83.3583 328° Northwest 149 171 1,400  Level Cleveland Center
12:29PM 42.1564 -83.4122 220° Southwest 190 219 4,200 2,280 Climbing Cleveland Center
12:29PM 42.1611 -83.4742 276° West 225 259 6,500 2,400 Climbing Cleveland Center
12:30PM 42.2014 -83.5347 312° West 231 266 8,800 2,220 Climbing Cleveland Center
12:31PM 42.2397 -83.5869 315° West 236 272 10,900 1,980 Climbing Cleveland Center
12:32PM 42.3119 -83.6131 345° North 243 280 12,800 1,980 Climbing Cleveland Center
12:33PM 42.5677 -83.6533 328° Northwest  Level Estimated
12:33PM 42.4022 -83.5808 15° North 255 293 14,900  Level Cleveland Center
12:34PM 42.4908 -83.5428 18° North 290 334 16,200 1,260 Climbing Cleveland Center
12:35PM 42.5836 -83.5047 17° North 324 373 17,500 1,380 Climbing Cleveland Center
12:36PM 42.6819 -83.4867 North 343 395 19,000 1,200 Climbing Cleveland Center
12:37PM 42.7594 -83.5553 327° Northwest 320 368 20,000 480 Climbing Cleveland Center
12:38PM 42.8408 -83.6358 324° Northwest 319 367 20,000  Level Cleveland Center
12:39PM 42.9178 -83.7161 323° Northwest 340 391 20,000  Level Cleveland Center
12:40PM 42.9969 -83.7939 324° Northwest 346 398 20,000  Level Cleveland Center
12:41PM 43.0742 -83.8689 325° Northwest 351 404 20,000  Level Cleveland Center
12:42PM 43.1531 -83.9469 324° Northwest 351 404 20,000  Level Cleveland Center
12:43PM 43.2383 -84.0258 326° Northwest 351 404 20,000  Level Cleveland Center
12:44PM 43.3069 -84.1011 321° Northwest 352 405 20,000  Level Cleveland Center
12:46PM 43.4325 -84.2275 324° Northwest 354 407 20,000  Level Minneapolis Center
12:47PM 43.5181 -84.3125 324° Northwest 372 428 20,000  Level Minneapolis Center
12:48PM 43.6050 -84.3989 324° Northwest 382 440 20,000  Level Minneapolis Center
12:49PM 43.6878 -84.4839 323° Northwest 377 434 20,000 -360 Level Minneapolis Center
12:50PM 43.7800 -84.5467 334° Northwest 374 430 19,300 -1,260 Descending Minneapolis Center
12:51PM 43.8922 -84.6022 340° North 361 415 17,400 -1,740 Descending Minneapolis Center
12:52PM 43.9825 -84.6503 339° North 353 406 15,800 -1,740 Descending Minneapolis Center
12:53PM 44.0656 -84.6950 339° North 344 396 13,900 -1,920 Descending Minneapolis Center
12:54PM 44.1514 -84.7400 339° North 335 386 11,900 -2,160 Descending Minneapolis Center
12:55PM 44.2422 -84.7875 339° North 303 349 9,500 -1,800 Descending Minneapolis Center
12:56PM 44.3092 -84.8256 338° Northwest 274 315 8,300 -1,440 Descending Minneapolis Center
12:57PM 44.3672 -84.8642 335° Northwest 244 281 6,600 -1,620 Descending Minneapolis Center
12:58PM 44.4228 -84.9028 334° Northwest 233 268 5,000 -1,440 Descending Minneapolis Center
12:59PM 44.4772 -84.9436 332° Northwest 227 261 3,700 -780 Descending Minneapolis Center
01:00PM 44.5328 -84.9858 332° Northwest 227 261 3,500 -120 Descending Minneapolis Center
01:02PM 44.5883 -85.0283 331° Northwest 227 261 3,500  Level Minneapolis Center
01:03PM 44.6553 -85.0794 331° Northwest 229 264 3,500  Level Minneapolis Center
01:04PM 44.7008 -85.1322 321° Northwest 222 255 3,500  Level Minneapolis Center
01:05PM 44.7261 -85.2067 296° West 217 250 3,500 -300 Level Minneapolis Center
01:06PM 44.7286 -85.2933 272° West 218 251 3,000 -480 Descending Minneapolis Center
01:07PM 44.7311 -85.3764 272° West 216 249 2,600 -300 Descending Minneapolis Center
01:08PM 44.7342 -85.4392 274° West 184 212 2,400 -480 Descending Minneapolis Center
01:09PM 44.7367 -85.4892 274° West 146 168 1,700 -660 Descending Minneapolis Center
01:10PM 44.7392 -85.5403 274° West 133 153 1,100 -600 Descending Minneapolis Center